When you browse on this site, cookies collect data to enhance your experience and personalize the content and advertising you see.
Visit our Privacy Policy to learn more. By continuing to use the site, you agree to this use of cookies and data.
  • în România
  • Lista ţărilor
  • Pe 7 zile
  • Temperatura apei
  • Hartă satelitară
  • Meteo pe hartă
  • Widget-uri
  • user-avatar
    Intrare

    Meteo pe oră la Lubango

    Astăzi, 17 Ianuarie, Joi

    Timp Temperatura Precipitaţii Vânt Presiune Umiditate
    00:00 +15°C° 0 mm 1 m/s 608 mmHg 68%
    01:00 +15°C° 0 mm 1 m/s 608 mmHg 69%
    02:00 +15°C° 0.2 mm 1 m/s 608 mmHg 69%
    03:00 +15°C° 0.2 mm 1 m/s 608 mmHg 70%
    04:00 +15°C° 0.2 mm 1 m/s 607 mmHg 71%
    05:00 +15°C° 0.3 mm 1 m/s 608 mmHg 69%
    06:00 +15°C° 0.3 mm 1 m/s 608 mmHg 68%
    07:00 +16°C° 0.3 mm 1 m/s 608 mmHg 66%
    08:00 +18°C° 0.2 mm 1 m/s 609 mmHg 61%
    09:00 +19°C° 0.2 mm 1 m/s 609 mmHg 57%
    10:00 +20°C° 0.2 mm 1 m/s 610 mmHg 52%
    11:00 +20°C° 0 mm 1 m/s 609 mmHg 51%
    12:00 +20°C° 0 mm 2 m/s 609 mmHg 49%
    13:00 +20°C° 0 mm 2 m/s 609 mmHg 48%
    14:00 +21°C° 0 mm 2 m/s 608 mmHg 46%
    15:00 +21°C° 0 mm 2 m/s 608 mmHg 44%
    16:00 +23°C° 0 mm 2 m/s 608 mmHg 42%
    17:00 +20°C° 0 mm 2 m/s 608 mmHg 47%
    18:00 +19°C° 0 mm 2 m/s 607 mmHg 51%
    19:00 +17°C° 0 mm 2 m/s 607 mmHg 55%
    20:00 +17°C° 0 mm 2 m/s 607 mmHg 57%
    21:00 +16°C° 0 mm 1 m/s 607 mmHg 58%
    22:00 +16°C° 0 mm 1 m/s 608 mmHg 59%
    23:00 +16°C° 0 mm 1 m/s 608 mmHg 60%

    Mâine, 18 Ianuarie, Vineri

    Timp Temperatura Precipitaţii Vânt Presiune Umiditate
    00:00 +16°C° 0 mm 1 m/s 608 mmHg 61%
    01:00 +16°C° 0 mm 1 m/s 608 mmHg 62%
    02:00 +16°C° 0 mm 1 m/s 608 mmHg 62%
    03:00 +16°C° 0 mm 1 m/s 607 mmHg 62%
    04:00 +16°C° 0 mm 1 m/s 607 mmHg 62%
    05:00 +16°C° 0 mm 1 m/s 608 mmHg 61%
    06:00 +16°C° 0 mm 1 m/s 608 mmHg 61%
    07:00 +15°C° 0 mm 0 m/s 608 mmHg 60%
    08:00 +19°C° 0 mm 1 m/s 609 mmHg 54%
    09:00 +21°C° 0 mm 1 m/s 610 mmHg 48%
    10:00 +23°C° 0 mm 1 m/s 611 mmHg 41%
    11:00 +24°C° 0 mm 1 m/s 610 mmHg 39%
    12:00 +26°C° 0 mm 2 m/s 610 mmHg 36%
    13:00 +27°C° 0 mm 2 m/s 610 mmHg 34%
    14:00 +26°C° 0 mm 2 m/s 610 mmHg 35%
    15:00 +26°C° 0 mm 2 m/s 609 mmHg 36%
    16:00 +25°C° 0 mm 2 m/s 608 mmHg 37%
    17:00 +23°C° 0 mm 2 m/s 608 mmHg 42%
    18:00 +21°C° 0 mm 2 m/s 608 mmHg 47%
    19:00 +19°C° 0 mm 2 m/s 607 mmHg 51%
    20:00 +19°C° 0 mm 1 m/s 608 mmHg 55%
    21:00 +18°C° 0 mm 1 m/s 608 mmHg 58%
    22:00 +16°C° 0 mm 1 m/s 608 mmHg 61%
    23:00 +15°C° 0 mm 1 m/s 608 mmHg 63%

    Poimâine, 19 Ianuarie, Sâmbătă

    Timp Temperatura Precipitaţii Vânt Presiune Umiditate
    00:00 +15°C° 0 mm 1 m/s 608 mmHg 65%
    01:00 +15°C° 0 mm 1 m/s 607 mmHg 67%
    02:00 +14°C° 0 mm 1 m/s 607 mmHg 68%
    03:00 +14°C° 0 mm 1 m/s 607 mmHg 69%
    04:00 +14°C° 0 mm 1 m/s 607 mmHg 70%
    05:00 +15°C° 0.1 mm 1 m/s 607 mmHg 68%
    06:00 +15°C° 0.1 mm 1 m/s 608 mmHg 65%
    07:00 +16°C° 0.1 mm 1 m/s 608 mmHg 63%
    08:00 +19°C° 0 mm 1 m/s 610 mmHg 55%
    09:00 +22°C° 0 mm 1 m/s 611 mmHg 46%
    10:00 +25°C° 0 mm 1 m/s 612 mmHg 38%
    11:00 +25°C° 0 mm 1 m/s 612 mmHg 38%
    12:00 +26°C° 0 mm 1 m/s 611 mmHg 38%
    13:00 +26°C° 0 mm 1 m/s 611 mmHg 39%
    14:00 +25°C° 0.4 mm 2 m/s 610 mmHg 45%
    15:00 +23°C° 0.4 mm 2 m/s 609 mmHg 51%
    16:00 +21°C° 0.4 mm 2 m/s 608 mmHg 58%
    17:00 +20°C° 0 mm 2 m/s 608 mmHg 61%
    18:00 +20°C° 0 mm 1 m/s 608 mmHg 65%
    19:00 +19°C° 0 mm 1 m/s 608 mmHg 68%
    20:00 +18°C° 0 mm 1 m/s 608 mmHg 71%
    21:00 +18°C° 0 mm 1 m/s 608 mmHg 73%
    22:00 +16°C° 0 mm 1 m/s 608 mmHg 76%
    23:00 +16°C° 0 mm 1 m/s 608 mmHg 79%

    20 Ianuarie, Duminică

    Timp Temperatura Precipitaţii Vânt Presiune Umiditate
    00:00 +15°C° 0 mm 1 m/s 608 mmHg 82%
    01:00 +14°C° 0 mm 1 m/s 607 mmHg 86%
    02:00 +14°C° 0 mm 1 m/s 607 mmHg 86%
    03:00 +14°C° 0 mm 1 m/s 607 mmHg 86%
    04:00 +14°C° 0 mm 1 m/s 607 mmHg 87%
    05:00 +14°C° 0 mm 0 m/s 608 mmHg 83%
    06:00 +15°C° 0 mm 0 m/s 608 mmHg 79%
    07:00 +15°C° 0 mm 0 m/s 609 mmHg 74%
    08:00 +20°C° 0 mm 1 m/s 610 mmHg 65%
    09:00 +22°C° 0 mm 1 m/s 611 mmHg 57%
    10:00 +24°C° 0 mm 1 m/s 612 mmHg 48%
    11:00 +25°C° 0 mm 1 m/s 612 mmHg 45%
    12:00 +26°C° 0 mm 1 m/s 611 mmHg 43%
    13:00 +27°C° 0 mm 2 m/s 611 mmHg 41%
    14:00 +26°C° 0 mm 2 m/s 610 mmHg 44%
    15:00 +24°C° 0 mm 2 m/s 609 mmHg 47%
    16:00 +23°C° 0 mm 2 m/s 608 mmHg 50%
    17:00 +21°C° 0 mm 2 m/s 609 mmHg 55%
    18:00 +20°C° 0 mm 2 m/s 609 mmHg 60%
    19:00 +19°C° 0 mm 2 m/s 609 mmHg 65%
    20:00 +19°C° 0 mm 1 m/s 609 mmHg 69%
    21:00 +18°C° 0 mm 1 m/s 609 mmHg 74%
    22:00 +16°C° 0 mm 1 m/s 610 mmHg 79%
    23:00 +16°C° 0.1 mm 1 m/s 609 mmHg 82%

    21 Ianuarie, Luni

    Timp Temperatura Precipitaţii Vânt Presiune Umiditate
    00:00 +16°C° 0.1 mm 1 m/s 609 mmHg 85%
    01:00 +15°C° 0.1 mm 1 m/s 608 mmHg 87%
    02:00 +15°C° 0 mm 1 m/s 608 mmHg 88%
    03:00 +15°C° 0 mm 1 m/s 608 mmHg 89%
    04:00 +15°C° 0 mm 1 m/s 608 mmHg 89%
    05:00 +15°C° 0 mm 1 m/s 608 mmHg 86%
    06:00 +15°C° 0 mm 0 m/s 609 mmHg 83%
    07:00 +15°C° 0 mm 0 m/s 609 mmHg 80%
    08:00 +20°C° 0 mm 1 m/s 610 mmHg 69%
    09:00 +22°C° 0 mm 1 m/s 612 mmHg 58%
    10:00 +25°C° 0 mm 1 m/s 613 mmHg 47%
    11:00 +26°C° 0 mm 1 m/s 612 mmHg 43%
    12:00 +27°C° 0 mm 1 m/s 612 mmHg 39%
    13:00 +29°C° 0 mm 2 m/s 612 mmHg 35%
    14:00 +27°C° 0 mm 2 m/s 611 mmHg 40%
    15:00 +25°C° 0 mm 2 m/s 609 mmHg 45%
    16:00 +24°C° 0 mm 2 m/s 608 mmHg 50%
    17:00 +21°C° 0 mm 2 m/s 608 mmHg 54%
    18:00 +20°C° 0 mm 2 m/s 608 mmHg 57%
    19:00 +19°C° 0 mm 2 m/s 608 mmHg 61%
    20:00 +19°C° 0.1 mm 2 m/s 609 mmHg 65%
    21:00 +19°C° 0.1 mm 1 m/s 609 mmHg 68%
    22:00 +19°C° 0.1 mm 1 m/s 609 mmHg 71%
    23:00 +18°C° 0 mm 1 m/s 609 mmHg 72%

    22 Ianuarie, Marţi

    Timp Temperatura Precipitaţii Vânt Presiune Umiditate
    00:00 +18°C° 0 mm 1 m/s 608 mmHg 73%
    01:00 +15°C° 0 mm 0 m/s 608 mmHg 74%
    02:00 +16°C° 0 mm 1 m/s 608 mmHg 74%
    03:00 +16°C° 0 mm 1 m/s 608 mmHg 74%
    04:00 +16°C° 0 mm 1 m/s 607 mmHg 74%
    05:00 +16°C° 0 mm 1 m/s 608 mmHg 71%
    06:00 +18°C° 0 mm 1 m/s 609 mmHg 68%
    07:00 +19°C° 0 mm 1 m/s 609 mmHg 65%
    08:00 +21°C° 0 mm 1 m/s 610 mmHg 57%
    09:00 +24°C° 0 mm 2 m/s 611 mmHg 50%
    10:00 +26°C° 0 mm 3 m/s 612 mmHg 42%
    11:00 +26°C° 0 mm 2 m/s 612 mmHg 41%
    12:00 +26°C° 0 mm 2 m/s 611 mmHg 41%
    13:00 +26°C° 0 mm 2 m/s 610 mmHg 40%
    14:00 +25°C° 0 mm 2 m/s 609 mmHg 43%
    15:00 +24°C° 0 mm 2 m/s 609 mmHg 46%
    16:00 +24°C° 0 mm 2 m/s 608 mmHg 49%
    17:00 +21°C° 0 mm 2 m/s 608 mmHg 54%
    18:00 +20°C° 0 mm 2 m/s 607 mmHg 58%
    19:00 +19°C° 0 mm 2 m/s 607 mmHg 62%
    20:00 +18°C° 0 mm 2 m/s 608 mmHg 66%
    21:00 +18°C° 0 mm 1 m/s 608 mmHg 70%
    22:00 +16°C° 0 mm 1 m/s 608 mmHg 73%
    23:00 +16°C° 0 mm 1 m/s 608 mmHg 74%
    Arată mai mult